{"data":{"norad_id":59579,"intl_designator":"2024-076R","name":"STARLINK-31686","alt_names":[],"object_type":"PAYLOAD","status":"ACTIVE","operator":null,"country":"US","launch_date":"2024-04-23","launch_site_code":"AFETR","launch_vehicle":null,"mission":null,"orbit_class":"UNKNOWN","rcs_meters":null,"size_class":null,"mass_kg":null,"dimensions":null,"purposes":["comms"],"wikipedia_slug":null,"has_3d_model":false,"image_url":null,"decayed_at":null,"tle_current":{"epoch":"2026-09-20T21:59:40.483392Z","epoch_age_seconds":132290,"freshness":"FRESH","line1":"1 59579U 24076R   26263.91644078  .00002183  00000+0  88793-4 0  9994","line2":"2 59579  43.0004 346.1506 0000657 330.0233  30.0581 15.27595312136361","mean_motion":15.27595312,"eccentricity":6.57e-5,"inclination_deg":43.0004,"raan_deg":346.1506,"arg_perigee_deg":330.0233,"mean_anomaly_deg":30.0581,"bstar":8.8793e-5,"rev_number":13636,"period_min":94.265803821739,"perigee_km":482.55246987196,"apogee_km":483.45402370039,"semimajor_km":6861.1402467862,"source":"CELESTRAK","updated_at":"2026-09-22T09:00:49.004429Z"}}}